QPF
0.06 0.08 0.09 0.13 0.11 0.09 0.07 0.07 0.08 0.08 0.09 0.11 0.08 0.08 0.09 0.08 0.07 0.05 0.05 0.03 0.02 0.02 0.02 0.01 0.01 0.02 0.02 0.02 0.03 0.03 0.04 0.04 0.04 0.03 0.03 0.04 0.06 0.06
0.06 0.06 0.05 0.07 0.09 0.09 0.09 0.09 0.09 0.10 0.10 0.09 0.08 0.10 0.12 0.09 0.06 0.05 0.05 0.05 0.03 0.02 0.02 0.02 0.01 0.01 0.02 0.02 0.03 0.02 0.03 0.03 0.03 0.02 0.02 0.02 0.03 0.05
0.06 0.06 0.05 0.07 0.08 0.08 0.08 0.08 0.09 0.10 0.12 0.10 0.09 0.11 0.12 0.11 0.09 0.06 0.04 0.04 0.04 0.03 0.02 0.02 0.02 0.02 0.02 0.02 0.02 0.02 0.02 0.02 0.02 0.02 0.02 0.02 0.02 0.02
0.07 0.08 0.08 0.08 0.08 0.09 0.09 0.08 0.08 0.11 0.11 0.10 0.10 0.11 0.10 0.10 0.09 0.07 0.04 0.04 0.04 0.04 0.03 0.02 0.03 0.02 0.02 0.02 0.02 0.02 0.02 0.02 0.02 0.02 0.01 0.01 0.01 0.01
0.07 0.08 0.07 0.08 0.08 0.09 0.08 0.08 0.08 0.08 0.10 0.09 0.09 0.10 0.09 0.08 0.09 0.07 0.05 0.05 0.03 0.03 0.03 0.02 0.02 0.02 0.02 0.02 0.02 0.02 0.02 0.02 0.02 0.01 0.01 0.01 0.01 0.01
0.06 0.06 0.05 0.06 0.07 0.07 0.07 0.08 0.08 0.08 0.08 0.09 0.09 0.08 0.07 0.06 0.08 0.07 0.06 0.04 0.04 0.04 0.03 0.02 0.02 0.01 0.01 0.01 0.01 0.02 0.02 0.02 0.02 0.01 0.01 0.01 0.01 0.01
0.06 0.06 0.04 0.04 0.04 0.04 0.03 0.05 0.06 0.05 0.05 0.05 0.05 0.05 0.05 0.05 0.05 0.05 0.05 0.04 0.04 0.03 0.02 0.02 0.02 0.02 0.01 0.01 0.01 0.01 0.01 0.02 0.02 0.01 0.01 0.01 0.01 0.01
0.06 0.04 0.03 0.03 0.02 0.01 0.01 0.02 0.03 0.04 0.05 0.05 0.05 0.04 0.04 0.05 0.04 0.04 0.04 0.04 0.04 0.03 0.04 0.02 0.02 0.03 0.03 0.03 0.02 0.01 0.01 0.01 0.02 0.02 0.01 0.02 0.02 0.01
0.04 0.03 0.03 0.02 0.02 0.01 0.02 0.01 0.01 0.02 0.03 0.04 0.04 0.03 0.03 0.05 0.05 0.04 0.05 0.05 0.04 0.03 0.04 0.03 0.02 0.03 0.02 0.01 0.02 0.03 0.02 0.01 0.01 0.01 0.01 0.02 0.02 0.02
0.03 0.03 0.03 0.03 0.03 0.02 0.02 0.02 0.02 0.02 0.01 0.02 0.03 0.03 0.03 0.04 0.04 0.04 0.04 0.04 0.04 0.03 0.03 0.03 0.02 0.02 0.02 0.01 0.01 0.02 0.02 0.02 0.01 0.01 0.01 0.02 0.02 0.03
0.04 0.04 0.03 0.02 0.02 0.02 0.02 0.02 0.02 0.01 0.00 0.01 0.01 0.01 0.01 0.01 0.01 0.02 0.03 0.03 0.03 0.03 0.04 0.03 0.02 0.03 0.03 0.02 0.01 0.02 0.02 0.02 0.01 0.01 0.01 0.01 0.01 0.02
0.05 0.05 0.03 0.02 0.02 0.02 0.03 0.02 0.03 0.02 0.01 0.01 0.01 0.01 0.01 0.01 0.01 0.02 0.03 0.04 0.04 0.04 0.03 0.03 0.03 0.03 0.03 0.03 0.02 0.02 0.02 0.02 0.02 0.01 0.01 0.01 0.01 0.01
0.03 0.03 0.02 0.01 0.01 0.01 0.01 0.01 0.02 0.01 0.01 0.01 0.01 0.02 0.03 0.04 0.03 0.03 0.04 0.05 0.05 0.04 0.03 0.03 0.03 0.03 0.04 0.04 0.04 0.04 0.04 0.03 0.02 0.02 0.02 0.02 0.01 0.01
0.03 0.03 0.02 0.02 0.01 0.01 0.01 0.01 0.01 0.01 0.01 0.01 0.01 0.02 0.02 0.02 0.03 0.03 0.03 0.03 0.04 0.03 0.03 0.04 0.04 0.04 0.04 0.05 0.05 0.05 0.06 0.05 0.05 0.03 0.03 0.03 0.02 0.02
0.03 0.03 0.03 0.03 0.02 0.01 0.01 0.01 0.01 0.01 0.01 0.01 0.02 0.02 0.02 0.02 0.02 0.03 0.03 0.03 0.03 0.03 0.04 0.05 0.04 0.04 0.05 0.05 0.05 0.06 0.06 0.05 0.04 0.04 0.03 0.02 0.02 0.02
0.02 0.02 0.03 0.03 0.02 0.01 0.01 0.01 0.01 0.01 0.01 0.01 0.01 0.02 0.02 0.02 0.03 0.03 0.03 0.03 0.04 0.04 0.05 0.04 0.03 0.04 0.04 0.04 0.04 0.04 0.05 0.04 0.04 0.03 0.04 0.03 0.03 0.03
0.01 0.02 0.02 0.02 0.02 0.02 0.01 0.01 0.01 0.01 0.01 0.01 0.01 0.01 0.01 0.01 0.01 0.02 0.02 0.03 0.04 0.04 0.04 0.03 0.02 0.02 0.03 0.03 0.04 0.03 0.03 0.03 0.03 0.03 0.04 0.04 0.03 0.02
0.02 0.02 0.02 0.01 0.01 0.01 0.01 0.01 0.01 0.02 0.02 0.02 0.02 0.01 0.01 0.01 0.01 0.01 0.02 0.02 0.03 0.04 0.04 0.03 0.04 0.04 0.03 0.03 0.02 0.02 0.02 0.02 0.02 0.03 0.04 0.04 0.03 0.03
0.01 0.01 0.01 0.01 0.01 0.01 0.01 0.01 0.01 0.01 0.01 0.02 0.01 0.01 0.01 0.01 0.01 0.01 0.02 0.03 0.03 0.03 0.04 0.04 0.04 0.04 0.05 0.03 0.02 0.01 0.01 0.02 0.02 0.02 0.02 0.02 0.03 0.02
0.01 0.01 0.01 0.01 0.01 0.01 0.01 0.01 0.01 0.01 0.01 0.02 0.03 0.02 0.02 0.02 0.02 0.02 0.02 0.02 0.03 0.02 0.03 0.03 0.03 0.03 0.04 0.04 0.03 0.03 0.01 0.01 0.02 0.01 0.01 0.01 0.01 0.01
0.01 0.01 0.01 0.01 0.01 0.01 0.01 0.01 0.01 0.02 0.02 0.03 0.03 0.04 0.04 0.04 0.03 0.02 0.02 0.02 0.01 0.02 0.02 0.02 0.03 0.03 0.03 0.04 0.04 0.03 0.02 0.02 0.02 0.02 0.01 0.02 0.02 0.01
0.00 0.01 0.01 0.01 0.01 0.01 0.02 0.02 0.02 0.03 0.03 0.02 0.02 0.03 0.04 0.03 0.03 0.04 0.03 0.02 0.02 0.02 0.02 0.02 0.01 0.02 0.02 0.04 0.04 0.04 0.03 0.02 0.02 0.02 0.02 0.02 0.02 0.01
0.01 0.01 0.01 0.01 0.02 0.02 0.03 0.03 0.03 0.03 0.03 0.02 0.02 0.02 0.03 0.03 0.03 0.03 0.03 0.03 0.03 0.02 0.02 0.02 0.02 0.02 0.02 0.02 0.03 0.02 0.02 0.02 0.02 0.02 0.02 0.02 0.01 0.01
MSLP
1016.81 1017.06 1017.31 1017.51 1017.64 1017.66 1017.57 1017.37 1017.08 1016.71 1016.30 1015.88 1015.47 1015.08 1014.73 1014.43 1014.17 1013.94 1013.76 1013.59 1013.45 1013.29 1013.12 1012.90 1012.63 1012.29 1011.89 1011.45 1011.00 1010.58 1010.25 1010.04 1010.00 1010.13 1010.46 1010.95 1011.57 1012.26
1016.59 1016.82 1017.05 1017.24 1017.37 1017.41 1017.35 1017.19 1016.93 1016.60 1016.21 1015.80 1015.37 1014.95 1014.56 1014.19 1013.87 1013.59 1013.36 1013.17 1013.01 1012.86 1012.70 1012.51 1012.26 1011.94 1011.55 1011.09 1010.61 1010.15 1009.76 1009.49 1009.38 1009.47 1009.76 1010.24 1010.86 1011.59
1016.34 1016.55 1016.76 1016.94 1017.07 1017.14 1017.11 1017.00 1016.79 1016.51 1016.16 1015.77 1015.35 1014.91 1014.49 1014.08 1013.71 1013.38 1013.10 1012.88 1012.70 1012.55 1012.40 1012.22 1011.98 1011.67 1011.27 1010.80 1010.29 1009.78 1009.32 1008.99 1008.82 1008.86 1009.11 1009.57 1010.20 1010.94
1016.13 1016.31 1016.50 1016.68 1016.82 1016.91 1016.93 1016.87 1016.72 1016.50 1016.20 1015.84 1015.43 1015.00 1014.55 1014.11 1013.70 1013.33 1013.01 1012.75 1012.55 1012.38 1012.23 1012.04 1011.81 1011.49 1011.09 1010.59 1010.05 1009.49 1008.98 1008.59 1008.36 1008.35 1008.55 1008.98 1009.60 1010.34
1015.97 1016.14 1016.32 1016.49 1016.65 1016.77 1016.83 1016.82 1016.73 1016.57 1016.32 1015.99 1015.61 1015.18 1014.72 1014.26 1013.82 1013.41 1013.06 1012.77 1012.54 1012.35 1012.18 1011.99 1011.75 1011.42 1011.00 1010.49 1009.92 1009.32 1008.77 1008.33 1008.05 1007.97 1008.13 1008.52 1009.10 1009.81
1015.89 1016.04 1016.21 1016.39 1016.56 1016.71 1016.81 1016.84 1016.80 1016.68 1016.47 1016.18 1015.82 1015.40 1014.94 1014.46 1014.00 1013.57 1013.19 1012.88 1012.63 1012.42 1012.24 1012.04 1011.78 1011.45 1011.02 1010.50 1009.91 1009.30 1008.72 1008.24 1007.92 1007.80 1007.90 1008.23 1008.76 1009.42
1015.83 1015.98 1016.14 1016.32 1016.50 1016.67 1016.79 1016.86 1016.85 1016.76 1016.59 1016.32 1015.97 1015.56 1015.11 1014.63 1014.16 1013.72 1013.33 1013.01 1012.75 1012.54 1012.35 1012.14 1011.89 1011.57 1011.15 1010.63 1010.05 1009.44 1008.85 1008.35 1008.00 1007.84 1007.89 1008.16 1008.61 1009.19
1015.76 1015.90 1016.06 1016.24 1016.43 1016.60 1016.73 1016.81 1016.82 1016.75 1016.59 1016.34 1016.00 1015.60 1015.16 1014.69 1014.23 1013.80 1013.42 1013.10 1012.85 1012.64 1012.46 1012.27 1012.04 1011.74 1011.35 1010.87 1010.31 1009.73 1009.16 1008.67 1008.31 1008.12 1008.12 1008.32 1008.69 1009.17
1015.63 1015.77 1015.92 1016.10 1016.28 1016.45 1016.58 1016.66 1016.67 1016.59 1016.43 1016.19 1015.86 1015.47 1015.04 1014.59 1014.15 1013.75 1013.39 1013.10 1012.87 1012.70 1012.55 1012.39 1012.20 1011.94 1011.60 1011.17 1010.68 1010.15 1009.62 1009.16 1008.81 1008.60 1008.57 1008.70 1008.98 1009.36
1015.41 1015.55 1015.71 1015.88 1016.05 1016.20 1016.32 1016.38 1016.37 1016.29 1016.12 1015.87 1015.55 1015.18 1014.76 1014.34 1013.93 1013.56 1013.25 1013.00 1012.81 1012.68 1012.57 1012.47 1012.33 1012.13 1011.86 1011.51 1011.10 1010.64 1010.18 1009.77 1009.44 1009.24 1009.18 1009.26 1009.47 1009.76
1015.13 1015.28 1015.44 1015.60 1015.76 1015.89 1015.99 1016.02 1015.99 1015.89 1015.71 1015.45 1015.13 1014.77 1014.38 1013.99 1013.62 1013.29 1013.02 1012.81 1012.68 1012.59 1012.54 1012.49 1012.41 1012.29 1012.10 1011.84 1011.51 1011.14 1010.77 1010.42 1010.13 1009.95 1009.88 1009.93 1010.07 1010.29
1014.81 1014.98 1015.15 1015.31 1015.45 1015.57 1015.64 1015.65 1015.59 1015.46 1015.26 1015.00 1014.69 1014.33 1013.97 1013.61 1013.27 1012.98 1012.75 1012.59 1012.50 1012.46 1012.45 1012.45 1012.45 1012.40 1012.29 1012.11 1011.88 1011.60 1011.31 1011.03 1010.80 1010.65 1010.58 1010.61 1010.73 1010.90
1014.50 1014.69 1014.87 1015.04 1015.18 1015.27 1015.32 1015.30 1015.22 1015.07 1014.86 1014.59 1014.28 1013.95 1013.60 1013.26 1012.96 1012.70 1012.50 1012.37 1012.31 1012.30 1012.33 1012.38 1012.42 1012.43 1012.40 1012.31 1012.16 1011.97 1011.76 1011.55 1011.38 1011.26 1011.22 1011.25 1011.36 1011.51
1014.21 1014.44 1014.64 1014.81 1014.94 1015.02 1015.05 1015.01 1014.91 1014.75 1014.54 1014.27 1013.97 1013.65 1013.33 1013.01 1012.73 1012.49 1012.31 1012.20 1012.15 1012.16 1012.21 1012.28 1012.36 1012.42 1012.44 1012.42 1012.34 1012.23 1012.10 1011.96 1011.85 1011.77 1011.76 1011.81 1011.92 1012.08
1013.95 1014.20 1014.41 1014.59 1014.71 1014.78 1014.80 1014.75 1014.65 1014.49 1014.28 1014.03 1013.75 1013.46 1013.15 1012.86 1012.60 1012.37 1012.20 1012.08 1012.03 1012.04 1012.09 1012.17 1012.27 1012.36 1012.43 1012.46 1012.45 1012.41 1012.34 1012.27 1012.21 1012.18 1012.20 1012.27 1012.41 1012.58
1013.67 1013.93 1014.15 1014.33 1014.44 1014.50 1014.51 1014.47 1014.37 1014.23 1014.05 1013.83 1013.59 1013.33 1013.06 1012.79 1012.55 1012.33 1012.16 1012.03 1011.97 1011.96 1012.00 1012.08 1012.19 1012.29 1012.39 1012.47 1012.51 1012.53 1012.52 1012.51 1012.50 1012.52 1012.57 1012.68 1012.83 1013.03
1013.32 1013.58 1013.80 1013.95 1014.05 1014.11 1014.11 1014.08 1014.01 1013.90 1013.77 1013.61 1013.42 1013.21 1012.99 1012.77 1012.54 1012.34 1012.16 1012.03 1011.95 1011.93 1011.95 1012.02 1012.13 1012.25 1012.37 1012.48 1012.57 1012.64 1012.69 1012.73 1012.78 1012.84 1012.93 1013.07 1013.24 1013.46
1012.87 1013.10 1013.28 1013.41 1013.49 1013.53 1013.54 1013.53 1013.49 1013.45 1013.38 1013.29 1013.19 1013.05 1012.90 1012.73 1012.54 1012.36 1012.20 1012.07 1011.97 1011.93 1011.95 1012.01 1012.11 1012.24 1012.39 1012.53 1012.66 1012.78 1012.89 1012.98 1013.07 1013.18 1013.30 1013.47 1013.66 1013.89
1012.30 1012.48 1012.61 1012.69 1012.74 1012.77 1012.78 1012.80 1012.82 1012.84 1012.86 1012.87 1012.86 1012.82 1012.75 1012.65 1012.52 1012.37 1012.23 1012.11 1012.02 1011.97 1011.97 1012.03 1012.14 1012.28 1012.44 1012.62 1012.79 1012.96 1013.11 1013.25 1013.39 1013.53 1013.69 1013.88 1014.09 1014.32
1011.64 1011.74 1011.81 1011.83 1011.84 1011.85 1011.89 1011.94 1012.02 1012.12 1012.24 1012.35 1012.45 1012.51 1012.53 1012.51 1012.45 1012.35 1012.25 1012.14 1012.06 1012.01 1012.02 1012.08 1012.18 1012.34 1012.52 1012.72 1012.93 1013.13 1013.33 1013.52 1013.69 1013.88 1014.06 1014.27 1014.49 1014.71
1010.92 1010.95 1010.93 1010.90 1010.88 1010.88 1010.92 1011.02 1011.16 1011.35 1011.56 1011.78 1011.98 1012.15 1012.26 1012.33 1012.33 1012.30 1012.23 1012.15 1012.08 1012.05 1012.05 1012.11 1012.22 1012.38 1012.58 1012.80 1013.04 1013.27 1013.49 1013.71 1013.93 1014.13 1014.34 1014.56 1014.79 1015.01
1010.20 1010.15 1010.07 1009.99 1009.94 1009.93 1010.00 1010.14 1010.34 1010.61 1010.91 1011.22 1011.52 1011.78 1011.98 1012.12 1012.19 1012.20 1012.17 1012.12 1012.07 1012.04 1012.05 1012.11 1012.22 1012.38 1012.58 1012.81 1013.05 1013.29 1013.54 1013.78 1014.01 1014.23 1014.46 1014.69 1014.92 1015.14
1009.52 1009.40 1009.28 1009.17 1009.10 1009.11 1009.20 1009.38 1009.65 1009.98 1010.35 1010.74 1011.11 1011.44 1011.71 1011.90 1012.02 1012.07 1012.07 1012.04 1012.00 1011.97 1011.98 1012.04 1012.14 1012.29 1012.47 1012.69 1012.93 1013.17 1013.41 1013.66 1013.89 1014.12 1014.36 1014.59 1014.82 1015.05
Thickness
5707 5706 5705 5705 5705 5705 5704 5701 5695 5689 5689 5694 5697 5701 5701 5699 5697 5694 5692 5689 5687 5685 5683 5681 5678 5676 5675 5673 5672 5670 5669 5667 5667 5666 5666 5666 5667 5667
5704 5703 5702 5702 5702 5702 5701 5700 5698 5692 5687 5691 5693 5695 5695 5694 5692 5691 5689 5687 5684 5682 5679 5676 5674 5672 5670 5668 5667 5665 5664 5662 5661 5660 5660 5661 5661 5662
5701 5700 5699 5698 5697 5697 5697 5696 5694 5691 5686 5687 5690 5691 5690 5689 5687 5686 5685 5683 5680 5678 5675 5672 5670 5667 5665 5664 5662 5660 5659 5657 5656 5655 5655 5655 5655 5656
5697 5696 5695 5695 5693 5692 5691 5691 5690 5689 5686 5681 5682 5683 5683 5683 5683 5681 5681 5679 5677 5675 5671 5668 5666 5663 5661 5659 5657 5655 5654 5652 5651 5650 5650 5650 5650 5650
5694 5693 5692 5691 5689 5688 5687 5686 5686 5686 5684 5680 5678 5678 5678 5678 5676 5675 5675 5673 5673 5670 5667 5665 5662 5659 5657 5655 5653 5651 5649 5647 5646 5645 5645 5645 5645 5646
5690 5690 5689 5688 5687 5686 5684 5683 5682 5680 5679 5677 5674 5672 5672 5672 5670 5668 5666 5666 5666 5665 5663 5660 5658 5655 5653 5651 5649 5647 5644 5642 5641 5640 5640 5640 5640 5641
5686 5685 5685 5684 5683 5683 5682 5680 5678 5676 5674 5672 5669 5667 5665 5664 5662 5663 5660 5660 5660 5660 5658 5656 5653 5650 5648 5646 5644 5642 5640 5638 5637 5636 5636 5635 5635 5634
5682 5681 5681 5680 5679 5678 5677 5676 5674 5672 5670 5667 5664 5661 5660 5659 5658 5657 5655 5652 5651 5654 5653 5651 5650 5647 5645 5643 5641 5639 5637 5635 5633 5632 5632 5631 5630 5629
5678 5677 5678 5677 5675 5674 5672 5671 5670 5668 5666 5663 5659 5657 5656 5655 5654 5651 5649 5647 5646 5649 5648 5645 5645 5643 5642 5640 5638 5636 5633 5631 5629 5628 5627 5626 5625 5625
5674 5673 5672 5670 5670 5667 5667 5665 5664 5663 5662 5659 5657 5655 5654 5652 5650 5648 5646 5645 5645 5645 5643 5638 5639 5638 5638 5636 5634 5632 5630 5628 5626 5624 5622 5621 5621 5620
5670 5669 5667 5664 5662 5661 5660 5659 5658 5657 5657 5655 5653 5651 5648 5646 5644 5641 5639 5637 5635 5636 5637 5634 5633 5633 5632 5630 5628 5627 5625 5623 5622 5620 5618 5617 5616 5615
5664 5663 5661 5658 5656 5654 5653 5652 5650 5650 5649 5648 5646 5645 5644 5642 5640 5637 5634 5631 5629 5629 5631 5629 5627 5626 5623 5624 5623 5621 5619 5618 5616 5615 5614 5612 5610 5609
5658 5657 5655 5653 5651 5649 5647 5646 5645 5644 5644 5643 5642 5641 5640 5638 5636 5634 5632 5628 5625 5624 5626 5624 5621 5620 5617 5617 5617 5616 5615 5614 5612 5610 5609 5608 5606 5604
5651 5651 5650 5648 5646 5644 5642 5642 5640 5639 5639 5638 5637 5636 5634 5633 5632 5630 5628 5626 5625 5623 5622 5620 5616 5614 5611 5610 5610 5610 5610 5609 5607 5606 5604 5603 5601 5599
5646 5644 5643 5641 5640 5639 5638 5637 5635 5635 5634 5633 5633 5632 5631 5630 5628 5626 5624 5622 5621 5619 5618 5616 5613 5611 5608 5605 5604 5604 5602 5602 5601 5600 5598 5596 5594 5593
5639 5638 5637 5636 5636 5635 5634 5632 5631 5631 5630 5629 5629 5628 5628 5626 5623 5621 5618 5616 5614 5612 5613 5611 5609 5606 5603 5601 5599 5598 5597 5595 5594 5593 5591 5590 5588 5586
5631 5632 5632 5632 5631 5631 5630 5629 5628 5627 5625 5625 5624 5622 5621 5620 5618 5617 5614 5611 5608 5605 5604 5604 5603 5601 5599 5596 5593 5592 5591 5590 5589 5587 5584 5583 5581 5580
5625 5626 5627 5627 5627 5627 5626 5625 5623 5622 5621 5620 5618 5617 5616 5615 5613 5611 5608 5605 5602 5600 5599 5598 5596 5594 5592 5591 5588 5587 5585 5583 5583 5581 5579 5576 5575 5574
5620 5622 5622 5622 5622 5622 5621 5620 5619 5619 5617 5615 5613 5612 5610 5609 5607 5604 5602 5599 5596 5595 5593 5592 5590 5586 5582 5581 5584 5581 5578 5578 5576 5574 5572 5570 5568 5567
5618 5618 5618 5618 5617 5617 5617 5616 5615 5613 5612 5610 5608 5606 5605 5603 5601 5598 5596 5593 5590 5589 5588 5587 5584 5581 5578 5576 5576 5576 5574 5572 5570 5567 5566 5565 5562 5561
5615 5615 5614 5613 5613 5612 5612 5611 5610 5608 5606 5604 5602 5601 5599 5597 5595 5593 5591 5587 5584 5583 5581 5580 5579 5578 5575 5572 5570 5569 5568 5566 5565 5562 5560 5558 5556 5554
5611 5611 5610 5609 5608 5608 5607 5606 5605 5604 5601 5599 5597 5595 5593 5591 5589 5588 5585 5582 5580 5578 5577 5576 5574 5572 5570 5566 5564 5564 5563 5562 5560 5558 5555 5553 5549 5547
5607 5607 5606 5606 5605 5604 5603 5601 5600 5598 5596 5594 5591 5589 5588 5586 5584 5582 5580 5578 5576 5574 5572 5570 5568 5566 5565 5563 5561 5560 5559 5558 5556 5553 5550 5549 5546 5544